Temperature
10 10 9 9 9 8 8 7 7 7 6 6 6 6 6 5 5 5 5 5 4 4 4 4 4 3 3 3 3 2 2 2 2 2 2 2 3 3 3 3 3 3 3
8 8 8 7 7 7 7 6 6 6 5 5 5 5 5 5 4 4 4 4 4 4 4 3 3 3 3 2 2 2 2 2 1 1 2 2 2 2 2 2 2 2 2
7 7 7 6 6 6 6 5 5 5 5 5 4 4 4 4 4 4 3 3 3 3 3 3 2 2 2 2 2 2 1 1 1 1 1 2 2 2 2 2 2 2 2
6 6 6 5 5 5 5 5 4 4 4 4 4 3 3 3 3 3 3 3 2 2 2 2 1 1 1 1 1 1 1 1 1 1 1 1 2 2 1 1 2 2 2
6 5 5 5 4 4 4 4 4 4 3 3 3 3 2 2 2 2 2 2 2 1 1 1 1 1 1 1 1 1 1 1 1 1 1 1 1 1 1 1 1 1 1
5 5 4 4 4 4 4 4 3 3 3 3 2 2 2 2 1 1 1 1 1 1 1 1 1 1 1 1 1 1 1 1 1 1 1 1 1 1 1 1 0 0 0
4 4 4 4 4 3 3 3 3 3 2 2 2 2 1 1 1 1 1 1 1 1 1 1 1 1 1 1 1 1 1 1 1 1 1 1 1 1 1 0 0 0 0
4 4 3 3 3 3 3 3 3 2 2 2 2 1 1 1 1 1 0 0 0 0 0 0 0 1 1 1 1 1 1 1 1 1 1 1 1 1 0 0 0 0 0
4 3 3 3 3 3 3 3 2 2 2 2 1 1 1 1 1 0 0 0 0 0 0 0 1 1 1 1 1 1 1 1 1 1 1 1 1 0 0 0 0 -0 0
3 3 3 3 3 3 3 2 2 2 2 2 1 1 1 1 0 0 0 0 1 1 1 1 1 1 1 1 1 1 1 1 1 1 1 1 1 0 0 0 0 -0 -0
3 3 3 3 3 3 3 2 2 2 2 1 1 1 1 0 0 0 0 0 1 1 1 1 1 1 1 1 1 1 1 1 1 1 1 1 1 1 0 0 0 0 -0
3 3 3 3 3 3 3 3 2 2 2 1 1 1 1 0 0 0 0 0 0 1 1 1 1 1 1 1 1 1 1 1 1 1 1 1 1 1 1 0 0 0 0
4 3 3 3 3 3 3 3 2 2 2 1 1 1 1 0 0 0 0 1 1 1 1 1 1 1 2 2 2 2 2 2 2 2 1 1 1 1 1 1 1 0 0
4 4 4 3 3 3 3 3 2 2 2 1 1 1 0 0 0 1 1 1 1 1 1 1 2 2 2 2 2 2 2 2 2 2 2 1 1 1 1 1 1 1 1
4 4 4 4 3 3 3 3 2 2 1 1 1 0 0 1 0 1 1 1 1 1 1 2 2 2 2 2 2 2 2 2 2 2 2 2 2 2 2 1 1 1 1
4 4 4 4 4 3 3 3 2 2 1 1 1 0 0 0 1 1 1 1 1 1 2 2 2 2 2 2 2 2 2 2 2 2 2 2 2 2 2 2 2 1 1
4 4 4 4 4 3 3 3 2 2 1 1 1 1 0 1 1 1 1 1 1 2 2 2 2 2 2 2 3 3 3 3 3 3 3 3 3 2 2 2 2 2 2
4 4 4 4 4 3 3 3 2 2 1 1 1 1 1 1 1 1 1 1 2 2 2 2 2 2 2 3 3 3 3 3 3 3 3 3 3 3 3 3 2 2 2
4 4 4 4 4 3 3 2 2 1 1 1 1 1 1 1 1 1 1 1 2 2 2 2 2 2 3 3 3 3 3 3 3 3 3 3 3 3 3 3 3 3 2
5 5 4 4 4 3 3 2 2 1 1 1 1 1 1 1 1 1 1 1 2 2 2 2 2 3 3 3 3 3 3 3 3 3 3 3 3 3 3 3 3 3 3
5 5 4 4 4 3 3 2 2 1 1 1 1 1 1 1 1 1 1 1 2 2 2 2 2 3 3 3 3 3 3 3 3 3 4 4 4 3 3 3 3 3 3
5 5 4 4 4 3 3 2 2 1 1 1 1 1 1 1 1 1 1 1 1 2 2 2 2 2 3 3 3 3 3 3 3 3 3 3 4 4 4 3 3 3 3
5 5 4 4 4 3 3 2 2 1 1 1 1 1 1 1 1 1 1 1 1 2 2 2 2 3 3 3 3 3 3 3 3 3 3 4 4 4 4 3 3 3 3
5 5 4 4 4 3 3 2 2 1 1 1 1 1 1 1 1 1 1 1 1 2 2 2 2 3 3 3 3 3 3 3 3 3 4 4 4 4 4 4 3 3 3
5 5 4 4 3 3 2 2 2 1 1 1 1 1 1 1 1 1 1 1 1 2 2 2 2 3 3 3 3 3 3 3 3 3 3 4 4 4 4 3 3 3 3
5 5 4 4 3 3 2 2 2 1 1 1 1 1 1 1 1 1 1 1 1 2 2 2 2 3 3 3 3 3 3 3 3 3 3 3 4 3 3 3 3 3 3
Wind_Speed
16 15 16 15 14 14 14 13 12 11 11 11 11 11 11 10 10 9 8 8 7 6 5 4 4 2 2 1 0 1 1 2 4 4 3 5 6 10 13 14 14 13 13
15 15 15 14 13 14 14 12 11 11 11 11 10 10 10 9 8 8 8 7 6 6 6 5 4 3 3 2 1 1 2 3 3 5 5 5 7 10 11 11 12 12 13
14 14 14 13 13 13 12 11 10 10 9 10 9 9 8 7 7 7 7 7 6 6 5 5 5 5 4 3 3 2 2 2 3 4 6 5 5 7 8 9 11 11 12
13 13 13 12 11 11 10 10 9 8 8 7 7 7 6 7 7 7 7 7 7 7 6 6 6 5 5 5 4 3 3 4 5 6 7 7 7 7 6 8 10 10 11
12 12 11 10 10 10 9 8 7 7 7 6 5 5 5 5 5 6 6 7 7 7 8 7 7 8 8 6 5 4 4 5 7 7 8 8 9 8 8 6 9 11 12
11 10 9 9 9 8 7 7 7 6 5 5 4 4 4 4 6 8 6 5 6 7 8 8 8 7 9 10 10 10 9 8 9 8 8 9 11 10 9 8 9 9 8
9 8 8 7 7 6 6 6 6 4 4 4 3 3 3 4 7 7 8 5 6 7 7 8 7 7 9 7 10 13 12 13 11 8 10 11 10 10 9 10 10 10 10
8 7 6 6 6 5 5 5 4 3 3 2 3 3 3 5 8 8 9 6 6 8 8 7 8 9 8 9 10 10 11 10 10 7 8 10 11 11 9 8 9 9 9
6 5 5 5 5 4 4 3 3 2 3 3 3 4 4 5 9 9 8 6 7 9 9 8 8 9 11 12 10 10 11 10 10 10 11 13 15 15 11 5 6 6 8
4 4 3 3 4 3 3 2 2 2 3 3 4 4 4 4 8 10 9 5 7 9 9 9 9 9 12 12 9 8 9 10 10 10 10 10 9 9 8 4 4 5 6
3 3 3 3 2 2 2 2 3 3 4 4 4 4 4 5 7 10 10 6 6 8 8 8 9 13 15 14 10 6 8 9 8 8 7 7 7 6 6 6 4 4 5
3 3 2 2 2 2 3 3 3 3 4 4 4 5 4 5 6 9 12 10 8 7 7 8 9 15 15 13 8 8 9 7 4 5 5 6 6 6 7 7 8 6 6
3 2 2 2 2 2 2 2 2 2 2 2 3 4 5 5 6 10 12 13 12 7 7 12 14 13 11 8 9 10 7 5 4 5 6 5 5 6 6 6 6 7 8
2 1 1 1 1 2 1 1 1 1 1 2 3 4 5 6 6 8 9 9 11 9 9 10 12 10 8 7 7 7 5 4 4 4 5 5 5 5 5 4 4 6 5
1 1 1 1 1 1 1 0 0 1 2 1 1 2 4 6 8 11 9 8 8 8 8 5 5 6 8 8 8 8 6 6 6 5 5 6 6 6 5 5 4 4 4
0 1 1 0 0 0 1 1 2 1 2 2 3 3 4 6 12 13 13 13 12 11 5 4 6 7 7 7 8 8 7 7 7 6 6 6 6 6 6 5 4 4 5
2 2 1 1 1 0 0 1 2 4 5 4 5 6 6 9 11 12 13 13 9 8 5 6 6 7 7 7 7 7 6 7 7 6 6 6 6 6 5 6 6 6 6
2 2 2 1 1 1 1 1 1 2 3 4 5 7 10 11 11 12 12 9 6 7 5 6 6 7 7 7 7 7 7 8 7 7 7 6 6 5 6 6 6 6 6
1 1 1 1 1 1 2 2 2 1 2 2 3 5 9 10 9 9 8 5 5 6 6 6 6 7 7 7 7 7 7 7 8 7 7 7 6 6 6 6 6 7 6
1 1 2 2 2 2 2 2 1 1 2 2 3 4 6 6 5 7 6 5 5 6 6 7 7 7 7 7 7 7 7 7 8 7 7 7 7 6 6 7 6 6 5
0 0 3 3 2 2 2 2 1 1 1 2 3 4 6 3 4 5 5 5 5 6 7 7 7 7 7 7 7 8 9 7 7 7 7 7 7 7 6 5 5 5 5
1 1 2 2 2 2 2 2 1 1 2 2 3 3 6 4 4 4 5 5 5 5 6 6 6 6 7 7 7 8 8 8 8 8 8 7 7 7 6 6 6 6 6
2 2 2 2 2 3 3 2 1 1 1 2 3 3 4 4 4 4 4 5 6 7 9 9 8 8 10 10 9 8 7 8 8 8 7 7 7 6 5 6 7 7 7
2 3 3 3 3 3 3 2 1 1 1 2 2 3 3 3 4 4 4 5 7 8 9 10 10 11 14 13 12 11 11 12 12 9 8 6 6 5 5 6 6 7 7
2 3 3 3 3 3 3 2 1 1 1 1 2 2 3 3 3 4 4 6 7 8 11 11 11 12 15 15 16 16 19 18 14 11 7 5 5 6 6 6 6 7 8
2 3 3 3 3 3 3 2 1 1 0 1 1 2 2 3 3 3 4 6 7 8 10 11 13 15 16 16 18 20 21 19 18 15 10 6 6 7 6 6 7 7 8
Wind_Direction
74 77 80 79 80 81 80 80 81 80 78 77 76 73 69 63 59 60 54 47 48 38 31 36 27 7 4 359 333 223 212 209 253 279 275 292 299 303 312 312 308 302 298
76 77 77 77 78 79 80 79 80 79 77 79 78 75 71 64 57 55 48 40 36 27 16 13 2 354 345 336 320 289 254 230 243 288 300 303 299 303 304 306 308 308 303
78 78 78 78 78 78 78 78 79 81 79 78 78 77 72 65 57 50 45 35 25 14 5 359 346 341 335 327 319 306 292 281 248 275 298 299 299 302 309 308 308 306 306
81 80 79 77 78 80 80 79 80 83 83 80 77 74 67 60 51 42 36 28 17 8 1 352 340 325 312 309 309 305 300 302 299 296 300 302 299 301 301 308 315 315 310
84 82 81 79 79 79 78 77 77 78 82 80 76 65 55 52 43 38 31 23 12 2 355 348 336 334 342 334 322 312 307 304 304 303 302 302 303 308 308 306 308 312 309
87 86 84 82 80 79 77 74 70 65 61 61 59 52 39 32 24 28 28 17 3 354 345 339 331 332 341 339 333 325 314 304 300 295 295 296 298 300 301 304 307 311 313
89 88 87 86 82 76 77 72 65 55 52 48 36 27 9 351 1 4 8 7 349 341 335 331 329 326 333 327 324 320 313 304 294 283 283 287 293 297 300 303 303 303 300
92 90 89 89 84 78 74 67 55 45 40 25 13 3 352 346 354 353 355 353 337 332 328 320 316 317 321 325 321 315 311 307 300 290 274 281 286 290 289 288 294 298 294
94 94 95 95 89 76 63 48 34 30 24 14 10 11 2 347 357 1 1 343 336 331 326 322 319 315 313 321 322 316 314 313 313 304 296 293 293 295 294 291 298 307 314
98 94 92 93 87 73 56 35 22 33 30 27 30 22 14 360 0 4 3 349 338 332 327 325 323 318 315 319 319 310 310 313 319 322 321 321 318 315 315 290 286 300 310
97 89 81 77 85 86 68 47 42 52 48 39 30 16 10 0 352 354 355 349 333 325 324 325 323 321 321 322 320 301 290 298 308 313 316 322 328 329 331 324 294 272 294
89 81 61 41 48 91 89 68 60 64 57 34 17 5 355 346 342 340 341 337 329 318 315 317 314 315 320 325 328 323 320 319 320 326 332 335 334 331 327 321 313 295 270
84 64 41 36 50 82 102 92 74 67 62 32 18 4 347 340 337 339 339 336 337 331 315 315 318 321 327 333 334 338 344 347 342 340 337 328 318 313 315 320 323 327 321
82 43 24 45 45 53 65 92 103 94 63 27 9 356 344 339 342 346 341 336 336 338 333 328 326 329 340 338 338 347 350 343 334 327 321 316 319 327 331 333 328 335 338
62 18 16 38 60 46 47 61 194 223 214 214 305 316 334 335 323 322 325 326 327 323 325 332 350 354 358 356 351 348 348 352 351 343 335 332 332 337 336 334 327 329 333
8 326 316 285 258 120 59 16 9 349 317 266 257 272 287 286 307 323 331 333 336 339 350 354 352 353 352 349 346 343 343 348 343 338 337 339 337 337 335 336 339 338 337
214 249 249 229 214 211 141 35 0 1 9 8 352 344 333 328 335 340 341 339 346 359 14 359 353 349 345 344 343 341 335 333 333 334 337 340 338 337 338 340 345 345 345
228 243 226 219 209 185 150 113 74 32 6 350 346 349 352 349 348 351 351 355 4 11 5 355 348 345 343 343 342 340 336 339 344 343 343 344 343 339 339 341 343 345 343
239 241 197 161 135 124 116 106 90 60 19 348 342 344 349 345 350 0 7 16 1 355 354 351 347 344 342 341 339 338 337 339 342 342 344 344 345 344 343 345 345 345 351
261 215 157 138 125 122 117 108 87 50 13 355 349 342 342 353 4 359 5 2 0 355 351 348 346 346 346 344 341 340 341 344 347 347 343 342 343 345 346 347 353 358 0
222 121 138 133 136 135 125 120 104 58 5 345 336 333 348 351 351 351 356 360 359 355 351 347 346 348 349 346 343 342 342 340 342 342 340 340 342 345 345 351 356 3 4
183 164 152 152 145 138 132 127 111 65 5 352 345 348 359 7 359 357 358 359 358 357 354 348 345 347 346 343 339 337 336 336 338 338 336 336 340 346 353 3 10 15 16
187 170 152 142 142 139 130 125 117 86 26 360 352 355 360 0 359 360 0 358 359 0 0 360 354 351 349 343 337 331 327 324 319 315 318 326 338 349 359 11 17 20 23
175 163 152 142 139 142 140 135 125 95 37 2 356 357 357 355 358 3 4 3 3 3 3 2 358 352 350 350 346 342 337 329 321 311 310 318 338 355 9 20 25 27 29
153 147 146 146 146 143 139 137 133 106 30 3 358 358 359 1 3 6 7 7 7 5 3 2 359 355 353 352 353 349 348 353 355 350 342 352 10 20 26 31 34 37 38
142 141 139 140 141 142 145 148 152 150 24 1 1 3 4 6 8 10 9 7 4 1 360 0 359 360 359 358 356 358 3 6 9 12 14 23 33 32 32 37 43 43 46
Height
1517 1519 1520 1522 1525 1526 1528 1530 1533 1535 1536 1537 1538 1539 1539 1540 1540 1540 1540 1539 1538 1537 1535 1534 1533 1532 1531 1530 1529 1527 1526 1525 1523 1520 1519 1516 1513 1510 1507 1504 1502 1499 1496
1523 1524 1525 1528 1529 1530 1532 1535 1537 1538 1539 1540 1541 1541 1541 1541 1540 1540 1539 1538 1536 1535 1533 1532 1531 1530 1529 1527 1526 1525 1523 1522 1519 1516 1514 1511 1508 1506 1502 1499 1496 1494 1491
1529 1530 1532 1533 1534 1535 1537 1539 1541 1542 1542 1543 1543 1542 1542 1541 1540 1539 1538 1536 1535 1533 1531 1530 1528 1527 1526 1525 1523 1522 1521 1519 1516 1513 1509 1507 1504 1501 1497 1495 1492 1489 1486
1535 1536 1537 1538 1539 1540 1541 1543 1544 1544 1544 1544 1544 1544 1543 1542 1540 1539 1537 1535 1534 1532 1530 1528 1526 1525 1523 1522 1521 1519 1517 1515 1513 1509 1506 1503 1500 1497 1493 1490 1486 1483 1480
1539 1540 1541 1542 1543 1544 1545 1546 1546 1546 1546 1546 1545 1545 1544 1542 1541 1539 1537 1535 1533 1530 1528 1527 1525 1523 1521 1520 1519 1516 1514 1512 1509 1506 1502 1499 1495 1492 1489 1485 1481 1478 1474
1543 1544 1545 1546 1547 1547 1548 1548 1549 1548 1548 1547 1546 1545 1544 1543 1541 1539 1537 1534 1531 1529 1526 1524 1522 1521 1519 1517 1516 1514 1512 1509 1505 1502 1499 1495 1492 1489 1486 1482 1478 1474 1470
1547 1548 1549 1550 1550 1550 1550 1550 1550 1550 1549 1548 1547 1546 1544 1543 1540 1538 1536 1533 1530 1527 1524 1522 1520 1518 1517 1515 1513 1511 1509 1506 1503 1500 1495 1492 1489 1486 1482 1479 1475 1472 1468
1550 1551 1552 1553 1553 1553 1553 1552 1552 1551 1550 1549 1547 1546 1544 1542 1540 1537 1535 1532 1529 1526 1523 1521 1518 1516 1514 1512 1510 1507 1505 1503 1500 1496 1493 1489 1486 1483 1480 1477 1473 1469 1465
1553 1554 1555 1555 1555 1555 1554 1554 1553 1552 1550 1549 1547 1545 1543 1541 1539 1536 1534 1531 1528 1525 1523 1520 1517 1515 1513 1510 1507 1505 1502 1499 1497 1494 1491 1487 1484 1480 1477 1474 1470 1467 1463
1556 1556 1557 1557 1557 1556 1556 1555 1554 1552 1551 1549 1547 1545 1542 1540 1538 1535 1533 1529 1527 1525 1522 1520 1517 1514 1512 1509 1506 1503 1499 1497 1494 1491 1488 1485 1482 1479 1476 1472 1469 1465 1461
1558 1559 1559 1559 1558 1558 1557 1556 1554 1553 1551 1549 1546 1544 1541 1539 1537 1535 1532 1529 1527 1524 1522 1519 1517 1514 1511 1508 1505 1502 1499 1496 1493 1490 1487 1484 1480 1477 1474 1471 1468 1464 1460
1560 1560 1560 1560 1559 1558 1558 1556 1555 1553 1551 1548 1546 1544 1541 1539 1537 1535 1532 1530 1528 1525 1522 1519 1516 1514 1511 1508 1505 1502 1499 1496 1493 1490 1487 1483 1480 1477 1474 1470 1467 1464 1460
1562 1561 1561 1561 1560 1559 1558 1556 1555 1553 1550 1548 1546 1544 1541 1539 1537 1535 1533 1531 1529 1526 1523 1520 1517 1514 1511 1508 1506 1503 1500 1497 1493 1490 1487 1484 1481 1477 1474 1470 1467 1464 1460
1563 1562 1562 1561 1560 1559 1558 1557 1555 1553 1551 1549 1547 1544 1542 1540 1538 1536 1534 1532 1529 1527 1524 1521 1518 1516 1513 1510 1507 1504 1501 1497 1494 1491 1488 1485 1482 1478 1474 1471 1467 1463 1459
1563 1563 1562 1562 1561 1560 1558 1557 1555 1553 1551 1549 1547 1545 1543 1541 1539 1537 1535 1532 1530 1528 1525 1523 1520 1517 1514 1511 1508 1505 1502 1499 1496 1493 1490 1486 1483 1479 1475 1472 1468 1464 1460
1564 1563 1562 1561 1560 1559 1558 1557 1555 1554 1552 1550 1548 1546 1544 1542 1540 1538 1536 1534 1532 1529 1527 1524 1521 1518 1515 1512 1509 1507 1504 1501 1498 1494 1491 1488 1484 1481 1477 1473 1469 1465 1461
1564 1563 1562 1561 1560 1559 1558 1557 1555 1554 1552 1550 1548 1547 1545 1543 1541 1539 1537 1535 1533 1531 1528 1526 1523 1520 1518 1515 1512 1509 1505 1503 1499 1496 1493 1489 1486 1482 1479 1475 1471 1467 1463
1563 1562 1561 1560 1560 1559 1558 1557 1555 1554 1552 1551 1549 1547 1546 1544 1542 1541 1539 1537 1535 1532 1530 1527 1525 1522 1520 1517 1514 1511 1508 1505 1502 1498 1494 1491 1487 1484 1480 1477 1473 1469 1465
1562 1562 1561 1560 1560 1559 1558 1557 1556 1554 1553 1551 1550 1548 1547 1545 1544 1542 1540 1538 1536 1534 1532 1529 1527 1524 1522 1519 1516 1513 1510 1507 1503 1500 1496 1493 1489 1486 1482 1479 1475 1472 1468
1562 1561 1561 1560 1560 1559 1558 1557 1556 1555 1553 1552 1551 1550 1548 1547 1545 1544 1542 1540 1538 1536 1534 1531 1529 1526 1524 1521 1518 1515 1512 1509 1505 1502 1498 1495 1491 1488 1484 1481 1477 1474 1471
1562 1561 1561 1560 1560 1559 1558 1558 1557 1555 1554 1553 1552 1551 1550 1548 1547 1546 1544 1542 1540 1538 1536 1533 1531 1528 1526 1523 1520 1517 1514 1511 1507 1504 1500 1497 1493 1490 1487 1483 1480 1477 1474
1561 1561 1560 1560 1559 1559 1558 1558 1557 1556 1555 1554 1553 1552 1552 1550 1549 1548 1546 1544 1542 1540 1537 1535 1532 1530 1527 1524 1522 1519 1515 1512 1509 1506 1502 1499 1496 1492 1489 1486 1483 1480 1476
1561 1560 1560 1560 1559 1559 1559 1558 1557 1557 1556 1555 1555 1554 1553 1552 1551 1549 1548 1546 1544 1541 1538 1536 1533 1531 1529 1526 1523 1520 1517 1514 1511 1507 1504 1501 1498 1495 1492 1489 1486 1483 1480
1560 1560 1559 1559 1559 1559 1559 1558 1558 1558 1557 1557 1556 1555 1554 1553 1552 1551 1549 1547 1544 1541 1539 1536 1534 1531 1529 1527 1525 1522 1519 1516 1513 1509 1506 1503 1500 1498 1495 1492 1489 1486 1484
1560 1560 1560 1559 1559 1559 1559 1559 1559 1558 1558 1558 1557 1556 1555 1554 1553 1551 1550 1547 1544 1542 1539 1536 1534 1532 1530 1528 1525 1523 1520 1518 1514 1511 1508 1506 1503 1500 1498 1495 1492 1490 1487
1560 1560 1560 1560 1560 1560 1560 1560 1559 1559 1559 1559 1558 1557 1556 1555 1554 1552 1550 1547 1545 1542 1540 1537 1535 1533 1530 1528 1526 1524 1522 1519 1516 1513 1510 1508 1505 1503 1500 1498 1496 1493 1491